This demonstration page uses our WeatherBlox Daily Observations layout. Learn more.

Left ArrowRight Arrow

44.8408, -93.29828

Hourly Observations for December 12, 2017

Temp ( °F °C ) Dew Point ( °F °C ) Humidity (%) Winds ( mph kmh ) Pressure ( in mb ) Visibility ( mi km ) Precip ( " mm )
12:53 am 00:53 Clear 13 -10.6 8 -13.3 81 81 NW 14 22 30.28 1025 10 16 0.00 0.00
1:53 am 01:53 Clear 12 -11.1 6 -14.4 77 77 NNW 12 19 30.28 1026 10 16 0.00 0.00
2:53 am 02:53 Clear 10 -12.2 5 -15 80 80 NW 13 20 30.30 1026 10 16 0.00 0.00
3:53 am 03:53 Clear 9 -12.8 4 -15.6 80 80 NW 12 19 30.30 1026 10 16 0.00 0.00
4:53 am 04:53 Clear 8 -13.3 3 -16.1 80 80 NW 9 15 30.29 1026 10 16 0.00 0.00
5:53 am 05:53 Clear 7 -13.9 3 -16.1 84 84 NW 10 17 30.29 1026 10 16 0.00 0.00
6:53 am 06:53 Mostly Clear 6 -14.4 2 -16.7 83 83 NW 8 13 30.28 1025 10 16 0.00 0.00
7:53 am 07:53 Partly Cloudy 7 -13.9 3 -16.1 84 84 WNW 7 11 30.28 1025 10 16 0.00 0.00
8:53 am 08:53 Mostly Cloudy 9 -12.8 4 -15.6 80 80 NW 8 13 30.27 1025 10 16 0.00 0.00
9:53 am 09:53 Mostly Cloudy 12 -11.1 5 -15 73 73 WNW 6 9 30.24 1024 10 16 0.00 0.00
10:53 am 10:53 Mostly Cloudy 13 -10.6 6 -14.4 74 74 VRB 3 6 30.22 1023 10 16 0.00 0.00
11:20 am 11:20 Cloudy 14 -10 6 -14.4 71 71 Calm 30.24 1024 10 16 0.00 0.00
11:53 am 11:53 Cloudy 15 -9.4 7 -13.9 70 70 Calm 30.18 1022 10 16 0.00 0.00
12:21 pm 12:21 Cloudy 16 -8.9 8 -13.3 71 71 VRB 5 7 30.15 1021 10 16 0.00 0.00
12:40 pm 12:40 Cloudy 16 -8.9 8 -13.3 71 71 S 6 9 30.15 1021 10 16 0.00 0.00
12:53 pm 12:53 Cloudy with Light Snow 16 -8.9 8 -13.3 71 71 S 5 7 30.12 1020 8 13 0.00 0.03
1:53 pm 13:53 Cloudy with Light Snow 18 -7.8 11 -11.7 74 74 S 8 13 30.09 1019 9 14 0.00 0.03
2:48 pm 14:48 Cloudy with Light Snow 19 -7 12 -11 73 73 SSE 9 15 30.06 1018 7 11 0.00 0.03
2:53 pm 14:53 Cloudy with Light Snow 19 -7.2 13 -10.6 77 77 SSE 9 15 30.04 1017 7 11 0.00 0.03
3:19 pm 15:19 Cloudy 19 -7.2 13 -10.6 77 77 S 8 13 30.03 1017 10 16 0.00 0.03
3:53 pm 15:53 Cloudy 20 -6.7 14 -10 78 78 SSE 8 13 30.01 1016 10 16 0.00 0.03
4:53 pm 16:53 Cloudy 21 -6.1 14 -10 74 74 SSE 9 15 29.97 1015 10 16 0.00 0.00
5:53 pm 17:53 Mostly Cloudy 20 -6.7 14 -10 78 78 SE 7 11 29.92 1013 10 16 0.00 0.00
6:53 pm 18:53 Cloudy 21 -6.1 16 -8.9 81 81 SE 7 11 29.90 1013 10 16 0.00 0.00
7:53 pm 19:53 Cloudy 23 -5 18 -7.8 81 81 SSE 7 11 29.85 1011 10 16 0.00 0.00
8:44 pm 20:44 Cloudy 24 -4.4 20 -6.7 84 84 SSE 7 11 29.80 1009 10 16 0.00 0.00
8:53 pm 20:53 Cloudy 24 -4.4 20 -6.7 84 84 SSE 6 9 29.79 1009 10 16 0.00 0.00
9:53 pm 21:53 Mostly Cloudy 25 -3.9 22 -5.6 88 88 SE 6 9 29.73 1007 10 16 0.00 0.00
10:38 pm 22:38 Mostly Cloudy 25 -3.9 23 -5 92 92 SE 7 11 29.71 1006 10 16 0.00 0.00
10:53 pm 22:53 Mostly Cloudy 26 -3.3 23 -5 88 88 SE 7 11 29.67 1005 10 16 0.00 0.00
11:46 pm 23:46 Mostly Cloudy 26 -3.3 24 -4.4 92 92 SE 7 11 29.65 1004 10 16 0.00 0.00
11:53 pm 23:53 Mostly Cloudy 26 -3.3 24 -4.4 92 92 SE 7 11 29.60 1003 10 16 0.00 0.00

Powered by AerisWeather